Find Starlink 4634

NORAD ID: 53967 Int'l Des: 2022-125 Owner: SPXS Country: US Constellation: starlink operational
LEOCIRCULAR

实时位置

正在加载3D地球...

关于 Starlink 4634

正在加载描述...

即将过境

Passes for default location (London). Set your location on the main map for personalized predictions.

高度历史

Loading altitude history...

两行轨道根数

1 53967U 22125D 26122.88756801 .00000606 00000-0 56154-4 0 9995
2 53967 53.2182 340.8520 0001482 91.9269 268.1893 15.08840284197505
Epoch: May 2, 2026 • Age: 7 hours

当前状态

高度 544.3 km
速度 7.60 km/s
星下点 48.66°N, 178.56°E
发射日期 Oct 5, 2022
运行时间 3.5 years
类型 internet

技术详情

分类 Payload
质量 305.00 kg
干质量 290.00 kg
总质量 305.00 kg
长度 0.20 m
直径 2.80 m
跨度 9.00 m
形状 Box + pan
制造商 SPXS
平台类型 Starlink
阶段状态 In Orbit
所有者/国家 SPXS/US

Most Searched